TimeEST,TemperatureF,Dew PointF,Humidity,Sea Level PressureIn,VisibilityMPH,Wind Direction,Wind SpeedMPH,Gust SpeedMPH,PrecipitationIn,Events,Conditions,WindDirDegrees,DateUTC
12:52 AM,37.0,30.0,76,30.44,10.0,Calm,Calm,-,N/A,,Overcast,0,2012-11-11 05:52:00
1:52 AM,37.9,30.9,76,30.44,10.0,Calm,Calm,-,N/A,,Overcast,0,2012-11-11 06:52:00
2:52 AM,39.0,30.9,73,30.44,10.0,Calm,Calm,-,N/A,,Overcast,0,2012-11-11 07:52:00
3:52 AM,39.0,32.0,76,30.46,10.0,Calm,Calm,-,N/A,,Overcast,0,2012-11-11 08:52:00
4:52 AM,39.0,32.0,76,30.47,10.0,Calm,Calm,-,N/A,,Overcast,0,2012-11-11 09:52:00
5:52 AM,39.9,33.1,77,30.47,10.0,Calm,Calm,-,N/A,,Overcast,0,2012-11-11 10:52:00
6:52 AM,39.9,34.0,79,30.48,10.0,Calm,Calm,-,N/A,,Overcast,0,2012-11-11 11:52:00
7:52 AM,43.0,35.1,74,30.49,10.0,Calm,Calm,-,N/A,,Overcast,0,2012-11-11 12:52:00
8:52 AM,51.1,41.0,68,30.48,10.0,South,8.1,17.3,N/A,,Scattered Clouds,180,2012-11-11 13:52:00
9:52 AM,53.1,42.1,66,30.48,10.0,South,8.1,-,N/A,,Clear,190,2012-11-11 14:52:00
10:52 AM,55.0,41.0,59,30.47,10.0,South,13.8,20.7,N/A,,Mostly Cloudy,190,2012-11-11 15:52:00
11:52 AM,57.9,41.0,53,30.44,10.0,SSW,15.0,19.6,N/A,,Partly Cloudy,200,2012-11-11 16:52:00
12:52 PM,57.9,42.1,56,30.42,10.0,South,9.2,-,N/A,,Mostly Cloudy,180,2012-11-11 17:52:00
1:52 PM,59.0,43.0,55,30.41,10.0,South,6.9,-,N/A,,Clear,170,2012-11-11 18:52:00
2:52 PM,61.0,43.0,52,30.40,10.0,South,9.2,-,N/A,,Clear,180,2012-11-11 19:52:00
3:52 PM,60.1,44.1,55,30.41,10.0,South,8.1,-,N/A,,Clear,180,2012-11-11 20:52:00
4:52 PM,55.0,44.1,67,30.43,10.0,South,6.9,-,N/A,,Clear,190,2012-11-11 21:52:00
5:52 PM,54.0,44.1,69,30.44,10.0,SSW,3.5,-,N/A,,Clear,200,2012-11-11 22:52:00
6:52 PM,46.9,43.0,86,30.45,9.0,Calm,Calm,-,N/A,,Clear,0,2012-11-11 23:52:00
7:52 PM,46.9,42.1,83,30.46,10.0,Calm,Calm,-,N/A,,Clear,0,2012-11-12 00:52:00
8:52 PM,52.0,45.0,77,30.47,10.0,South,5.8,-,N/A,,Clear,180,2012-11-12 01:52:00
9:52 PM,42.1,39.0,89,30.48,9.0,South,3.5,-,N/A,,Clear,180,2012-11-12 02:52:00
10:52 PM,39.9,39.0,97,30.47,3.0,Calm,Calm,-,N/A,,Clear,0,2012-11-12 03:52:00
11:33 PM,39.2,39.2,100,30.46,2.0,Calm,Calm,-,N/A,,Clear,0,2012-11-12 04:33:00
11:44 PM,41.0,39.2,93,30.46,4.0,Calm,Calm,-,N/A,,Clear,0,2012-11-12 04:44:00
11:52 PM,41.0,39.9,96,30.46,4.0,Calm,Calm,-,N/A,,Clear,0,2012-11-12 04:52:00